| time (UTC) | temp F | wind direction | speed MPH | gust MPH | rain 1hr in | rain 24hr in | rain mn in | humidity % | barometer mb |
| 20260507122910 | 66 | 113 | 3.0 | 6.0 | 0.00 | 0.05 | 0.00 | 54 | 1014.0 |
| 20260507122837 | 66 | 113 | 3.0 | 6.0 | 0.00 | 0.05 | 0.00 | 54 | 1014.0 |
| 20260507122339 | 65 | 97 | 5.0 | 7.0 | 0.00 | 0.05 | 0.00 | 54 | 1014.0 |
| 20260507121837 | 65 | 37 | 3.0 | 7.0 | 0.00 | 0.05 | 0.00 | 54 | 1014.0 |
| 20260507121337 | 66 | 16 | 2.0 | 4.0 | 0.00 | 0.05 | 0.00 | 54 | 1014.0 |
| 20260507120838 | 66 | 105 | 4.0 | 7.0 | 0.00 | 0.05 | 0.00 | 54 | 1014.0 |
| 20260507120338 | 65 | 79 | 4.0 | 6.0 | 0.00 | 0.05 | 0.00 | 53 | 1014.0 |
| 20260507115912 | 65 | 95 | 3.0 | 4.0 | 0.00 | 0.05 | 0.00 | 54 | 1014.0 |
| 20260507115837 | 65 | 95 | 3.0 | 4.0 | 0.00 | 0.05 | 0.00 | 54 | 1014.0 |
| 20260507114918 | 65 | 51 | 3.0 | 6.0 | 0.00 | 0.05 | 0.00 | 54 | 1015.0 |
| 20260507114839 | 65 | 51 | 3.0 | 6.0 | 0.00 | 0.05 | 0.00 | 54 | 1015.0 |
| 20260507114338 | 65 | 50 | 4.0 | 6.0 | 0.00 | 0.05 | 0.00 | 52 | 1015.0 |
| 20260507113337 | 66 | 149 | 2.0 | 4.0 | 0.00 | 0.05 | 0.00 | 51 | 1015.0 |
| 20260507112911 | 66 | 347 | 3.0 | 3.0 | 0.00 | 0.05 | 0.00 | 52 | 1015.0 |
| 20260507112838 | 66 | 347 | 3.0 | 3.0 | 0.00 | 0.05 | 0.00 | 52 | 1015.0 |
| 20260507112338 | 66 | 100 | 4.0 | 4.0 | 0.00 | 0.05 | 0.00 | 53 | 1015.0 |
| 20260507111838 | 66 | 134 | 4.0 | 4.0 | 0.00 | 0.05 | 0.00 | 54 | 1015.0 |
| 20260507111338 | 66 | 86 | 4.0 | 6.0 | 0.00 | 0.05 | 0.00 | 54 | 1015.0 |
| 20260507110837 | 65 | 99 | 2.0 | 4.0 | 0.00 | 0.05 | 0.00 | 54 | 1015.0 |
| 20260507110337 | 65 | 95 | 5.0 | 4.0 | 0.00 | 0.05 | 0.00 | 54 | 1015.0 |
| 20260507105838 | 64 | 271 | 2.0 | 6.0 | 0.00 | 0.05 | 0.00 | 53 | 1015.0 |
| 20260507105338 | 64 | 60 | 3.0 | 5.0 | 0.00 | 0.05 | 0.00 | 55 | 1016.0 |
| 20260507104341 | 64 | 87 | 2.0 | 3.0 | 0.00 | 0.05 | 0.00 | 61 | 1016.0 |
| 20260507104338 | 64 | 87 | 2.0 | 3.0 | 0.00 | 0.05 | 0.00 | 61 | 1016.0 |
| 20260507103838 | 63 | 12 | 3.0 | 4.0 | 0.00 | 0.05 | 0.00 | 60 | 1016.0 |
| 20260507103410 | 63 | 178 | 1.0 | 1.0 | 0.00 | 0.05 | 0.00 | 61 | 1016.0 |
| 20260507103338 | 63 | 178 | 1.0 | 1.0 | 0.00 | 0.05 | 0.00 | 61 | 1016.0 |
| 20260507102838 | 63 | 351 | 4.0 | 4.0 | 0.00 | 0.05 | 0.00 | 61 | 1016.0 |
| 20260507102338 | 63 | 22 | 2.0 | 4.0 | 0.00 | 0.05 | 0.00 | 60 | 1016.0 |
| 20260507101337 | 62 | 343 | 2.0 | 3.0 | 0.00 | 0.05 | 0.00 | 58 | 1016.0 |
| 20260507100839 | 62 | 6 | 2.0 | 4.0 | 0.00 | 0.05 | 0.00 | 59 | 1016.0 |
| 20260507100338 | 62 | 74 | 2.0 | 3.0 | 0.00 | 0.05 | 0.00 | 59 | 1016.0 |
| 20260507095838 | 63 | 158 | 2.0 | 6.0 | 0.00 | 0.05 | 0.00 | 59 | 1016.0 |
| 20260507094837 | 63 | 60 | 3.0 | 2.0 | 0.00 | 0.05 | 0.00 | 59 | 1015.0 |
| 20260507094508 | 63 | 322 | 3.0 | 5.0 | 0.00 | 0.05 | 0.00 | 59 | 1015.0 |
| 20260507094337 | 63 | 322 | 3.0 | 5.0 | 0.00 | 0.05 | 0.00 | 59 | 1015.0 |
| 20260507093914 | 63 | 95 | 2.0 | 4.0 | 0.00 | 0.05 | 0.00 | 60 | 1016.0 |
| 20260507093838 | 63 | 95 | 2.0 | 4.0 | 0.00 | 0.05 | 0.00 | 60 | 1016.0 |
| 20260507093411 | 62 | 330 | 2.0 | 1.0 | 0.00 | 0.05 | 0.00 | 62 | 1016.0 |
| 20260507093338 | 62 | 330 | 2.0 | 1.0 | 0.00 | 0.05 | 0.00 | 62 | 1016.0 |
| 20260507092909 | 62 | 99 | 1.0 | 3.0 | 0.00 | 0.05 | 0.00 | 57 | 1016.0 |
| 20260507092837 | 62 | 99 | 1.0 | 3.0 | 0.00 | 0.05 | 0.00 | 57 | 1016.0 |
| 20260507092409 | 61 | 141 | 3.0 | 4.0 | 0.00 | 0.05 | 0.00 | 63 | 1016.0 |
| 20260507092337 | 61 | 141 | 3.0 | 4.0 | 0.00 | 0.05 | 0.00 | 63 | 1016.0 |
| 20260507091839 | 61 | 104 | 4.0 | 6.0 | 0.00 | 0.05 | 0.00 | 64 | 1016.0 |
| 20260507091338 | 62 | 223 | 2.0 | 4.0 | 0.00 | 0.05 | 0.00 | 66 | 1016.0 |
| 20260507090838 | 62 | 164 | 3.0 | 2.0 | 0.00 | 0.05 | 0.00 | 68 | 1016.0 |
| 20260507090337 | 61 | 123 | 2.0 | 2.0 | 0.00 | 0.05 | 0.00 | 68 | 1016.0 |
| 20260507085839 | 61 | 87 | 1.0 | 3.0 | 0.00 | 0.05 | 0.00 | 68 | 1016.0 |
| 20260507085339 | 62 | 104 | 3.0 | 6.0 | 0.00 | 0.05 | 0.00 | 69 | 1016.0 |
| 20260507084838 | 62 | 128 | 2.0 | 3.0 | 0.00 | 0.05 | 0.00 | 70 | 1016.0 |
| 20260507084338 | 61 | 226 | 1.0 | 1.0 | 0.00 | 0.05 | 0.00 | 71 | 1016.0 |
| 20260507083837 | 60 | 130 | 2.0 | 3.0 | 0.00 | 0.05 | 0.00 | 72 | 1016.0 |
| 20260507083337 | 60 | 86 | 2.0 | 3.0 | 0.00 | 0.05 | 0.00 | 68 | 1016.0 |
| 20260507082845 | 60 | 53 | 2.0 | 2.0 | 0.00 | 0.05 | 0.00 | 73 | 1016.0 |
| 20260507082338 | 61 | 76 | 2.0 | 4.0 | 0.00 | 0.05 | 0.00 | 75 | 1016.0 |
| 20260507081839 | 60 | 112 | 3.0 | 5.0 | 0.00 | 0.05 | 0.00 | 76 | 1016.0 |
| 20260507080838 | 60 | 282 | 1.0 | 1.0 | 0.00 | 0.05 | 0.00 | 78 | 1016.0 |
| 20260507080337 | 59 | 64 | 1.0 | 2.0 | 0.00 | 0.05 | 0.00 | 78 | 1016.0 |
| 20260507075337 | 59 | 95 | 3.0 | 4.0 | 0.00 | 0.05 | 0.00 | 80 | 1017.0 |
| 20260507074838 | 59 | 80 | 2.0 | 3.0 | 0.00 | 0.05 | 0.00 | 81 | 1017.0 |
| 20260507074338 | 58 | 158 | 2.0 | 2.0 | 0.00 | 0.05 | 0.00 | 83 | 1017.0 |
| 20260507073837 | 58 | 90 | 3.0 | 3.0 | 0.00 | 0.05 | 0.00 | 84 | 1016.0 |
| 20260507073337 | 58 | 166 | 1.0 | 3.0 | 0.00 | 0.05 | 0.00 | 86 | 1016.0 |
| 20260507072839 | 58 | 158 | 2.0 | 2.0 | 0.00 | 0.05 | 0.00 | 87 | 1016.0 |
| 20260507072337 | 57 | 158 | 2.0 | 2.0 | 0.00 | 0.05 | 0.00 | 87 | 1017.0 |
| 20260507071839 | 57 | 127 | 1.0 | 2.0 | 0.00 | 0.05 | 0.00 | 88 | 1017.0 |
| 20260507071337 | 56 | 204 | 1.0 | 0.0 | 0.00 | 0.05 | 0.00 | 89 | 1017.0 |
| 20260507070838 | 56 | 103 | 0.0 | 2.0 | 0.00 | 0.05 | 0.00 | 89 | 1017.0 |
| 20260507070339 | 55 | 90 | 1.0 | 2.0 | 0.00 | 0.05 | 0.00 | 88 | 1017.0 |
| 20260507065837 | 55 | 108 | 2.0 | 3.0 | 0.00 | 0.05 | 0.00 | 89 | 1017.0 |
| 20260507065337 | 55 | 82 | 1.0 | 0.0 | 0.00 | 0.05 | 0.00 | 89 | 1017.0 |
| 20260507064839 | 54 | 116 | 1.0 | 1.0 | 0.00 | 0.05 | 0.00 | 89 | 1017.0 |
| 20260507064338 | 54 | 22 | 1.0 | 0.0 | 0.00 | 0.05 | 0.00 | 89 | 1017.0 |
| 20260507063838 | 53 | 0 | 2.0 | 1.0 | 0.00 | 0.05 | 0.00 | 90 | 1017.0 |
| 20260507063338 | 53 | 25 | 0.0 | 0.0 | 0.00 | 0.05 | 0.00 | 90 | 1017.0 |
| 20260507062337 | 52 | 339 | 0.0 | 0.0 | 0.00 | 0.05 | 0.00 | 89 | 1017.0 |
| 20260507061837 | 52 | 338 | 0.0 | 0.0 | 0.00 | 0.05 | 0.00 | 89 | 1017.0 |
| 20260507061157 | 52 | 86 | 1.0 | 2.0 | 0.00 | 0.05 | 0.00 | 86 | 1017.0 |
| 20260507061102 | 52 | 86 | 1.0 | 2.0 | 0.00 | 0.05 | 0.00 | 86 | 1017.0 |
| 20260507060838 | 52 | 86 | 1.0 | 2.0 | 0.00 | 0.05 | 0.00 | 86 | 1017.0 |
| 20260507060338 | 52 | 112 | 1.0 | 1.0 | 0.00 | 0.05 | 0.00 | 89 | 1017.0 |
| 20260507054842 | 52 | 134 | 1.0 | 1.0 | 0.00 | 0.05 | 0.00 | 91 | 1017.0 |
| 20260507052342 | 46 | 153 | 2.0 | 2.0 | 0.00 | 0.05 | 0.00 | 94 | 1016.0 |
| 20260507051839 | 45 | 158 | 1.0 | 1.0 | 0.00 | 0.05 | 0.00 | 94 | 1016.0 |
| 20260507050844 | 45 | 112 | 0.0 | 0.0 | 0.00 | 0.05 | 0.00 | 93 | 1016.0 |
| 20260507045341 | 45 | 158 | 0.0 | 0.0 | 0.00 | 0.05 | 0.00 | 93 | 1016.0 |
| 20260507044840 | 45 | 158 | 1.0 | 1.0 | 0.00 | 0.05 | 0.00 | 93 | 1016.0 |
| 20260507043841 | 45 | 112 | 0.0 | 0.0 | 0.00 | 0.05 | 0.00 | 92 | 1016.0 |
| 20260507043339 | 45 | 112 | 0.0 | 0.0 | 0.00 | 0.05 | 0.00 | 92 | 1016.0 |
| 20260507041340 | 46 | 90 | 0.0 | 0.0 | 0.00 | 0.05 | 0.00 | 92 | 1016.0 |
| 20260507040339 | 46 | 292 | 1.0 | 2.0 | 0.00 | 0.05 | 0.00 | 92 | 1015.0 |
| 20260507035342 | 47 | 160 | 2.0 | 3.0 | 0.00 | 0.05 | 0.00 | 91 | 1015.0 |
| 20260507034840 | 47 | 172 | 3.0 | 4.0 | 0.00 | 0.05 | 0.00 | 91 | 1015.0 |
| 20260507033432 | 46 | 168 | 2.0 | 3.0 | 0.00 | 0.05 | 0.00 | 91 | 1016.0 |
| 20260507033340 | 46 | 168 | 2.0 | 3.0 | 0.00 | 0.05 | 0.00 | 91 | 1016.0 |
| 20260507032339 | 46 | 158 | 2.0 | 2.0 | 0.00 | 0.05 | 0.00 | 91 | 1016.0 |
| 20260507031340 | 46 | 116 | 1.0 | 2.0 | 0.00 | 0.05 | 0.00 | 90 | 934.0 |
| 20260507030841 | 47 | 158 | 0.0 | 0.0 | 0.00 | 0.05 | 0.00 | 90 | 934.0 |
| 20260507030346 | 47 | 158 | 0.0 | 0.0 | 0.00 | 0.05 | 0.00 | 90 | 934.0 |
| 20260507025341 | 47 | 158 | 1.0 | 2.0 | 0.00 | 0.05 | 0.00 | 90 | 1016.0 |
| 20260507024842 | 47 | 158 | 1.0 | 2.0 | 0.00 | 0.05 | 0.00 | 90 | 1016.0 |
| 20260507023339 | 47 | 158 | 0.0 | 0.0 | 0.00 | 0.05 | 0.00 | 89 | 1016.0 |
| 20260507022840 | 47 | 158 | 0.0 | 0.0 | 0.00 | 0.05 | 0.00 | 89 | 1016.0 |
| 20260507022338 | 47 | 158 | 0.0 | 0.0 | 0.00 | 0.05 | 0.00 | 89 | 1016.0 |
| 20260507021340 | 47 | 158 | 0.0 | 0.0 | 0.00 | 0.05 | 0.00 | 88 | 1016.0 |
| 20260507020841 | 47 | 158 | 0.0 | 0.0 | 0.00 | 0.05 | 0.00 | 88 | 1016.0 |
| 20260507020341 | 47 | 158 | 0.0 | 0.0 | 0.00 | 0.05 | 0.00 | 88 | 1016.0 |
| 20260507014840 | 48 | 158 | 0.0 | 0.0 | 0.00 | 0.05 | 0.00 | 88 | 1016.0 |
| 20260507014340 | 48 | 158 | 1.0 | 1.0 | 0.00 | 0.05 | 0.00 | 87 | 1016.0 |
| 20260507013841 | 48 | 158 | 2.0 | 2.0 | 0.00 | 0.05 | 0.00 | 87 | 1016.0 |
| 20260507013340 | 48 | 169 | 2.0 | 2.0 | 0.00 | 0.05 | 0.00 | 87 | 1016.0 |
| 20260507012840 | 48 | 180 | 1.0 | 1.0 | 0.00 | 0.05 | 0.00 | 87 | 1016.0 |
| 20260507012342 | 48 | 135 | 0.0 | 0.0 | 0.00 | 0.05 | 0.00 | 86 | 1016.0 |
| 20260507011840 | 48 | 112 | 0.0 | 0.0 | 0.00 | 0.05 | 0.00 | 86 | 1016.0 |
| 20260507010338 | 49 | 194 | 1.0 | 2.0 | 0.00 | 0.05 | 0.00 | 86 | 1016.0 |
| 20260507005842 | 49 | 252 | 3.0 | 4.0 | 0.00 | 0.05 | 0.00 | 85 | 1016.0 |
| 20260507004843 | 50 | 248 | 3.0 | 4.0 | 0.00 | 0.05 | 0.00 | 85 | 1017.0 |
| 20260507004339 | 50 | 248 | 4.0 | 4.0 | 0.00 | 0.05 | 0.00 | 85 | 1017.0 |
| 20260507003915 | 50 | 248 | 3.0 | 4.0 | 0.00 | 0.05 | 0.00 | 85 | 1016.0 |
| 20260507003841 | 50 | 248 | 3.0 | 4.0 | 0.00 | 0.05 | 0.00 | 85 | 1016.0 |
| 20260507003342 | 50 | 248 | 4.0 | 4.0 | 0.00 | 0.05 | 0.00 | 84 | 1016.0 |
| 20260507002841 | 50 | 248 | 3.0 | 4.0 | 0.00 | 0.05 | 0.00 | 84 | 1016.0 |
| 20260507002342 | 50 | 252 | 3.0 | 4.0 | 0.00 | 0.05 | 0.00 | 84 | 1017.0 |
| 20260507001839 | 50 | 248 | 3.0 | 3.0 | 0.00 | 0.05 | 0.00 | 84 | 1017.0 |
| 20260507001342 | 50 | 251 | 3.0 | 4.0 | 0.00 | 0.05 | 0.00 | 83 | 1017.0 |
| 20260507000343 | 50 | 248 | 2.0 | 3.0 | 0.00 | 0.05 | 0.00 | 82 | 1017.0 |
| 20260506235341 | 51 | 251 | 3.0 | 3.0 | 0.00 | 0.05 | 0.00 | 82 | 1016.0 |
| 20260506234342 | 51 | 248 | 3.0 | 3.0 | 0.00 | 0.05 | 0.00 | 81 | 1016.0 |
| 20260506233840 | 51 | 248 | 2.0 | 3.0 | 0.00 | 0.05 | 0.00 | 80 | 1016.0 |
| 20260506233341 | 52 | 252 | 3.0 | 3.0 | 0.00 | 0.05 | 0.00 | 80 | 1016.0 |
| 20260506231343 | 52 | 248 | 3.0 | 4.0 | 0.00 | 0.05 | 0.00 | 78 | 1017.0 |
| 20260506230843 | 53 | 248 | 3.0 | 4.0 | 0.00 | 0.05 | 0.00 | 78 | 1017.0 |
| 20260506230340 | 53 | 251 | 4.0 | 4.0 | 0.00 | 0.05 | 0.00 | 77 | 1017.0 |
| 20260506225843 | 53 | 248 | 3.0 | 4.0 | 0.00 | 0.05 | 0.00 | 77 | 1017.0 |
| 20260506224840 | 54 | 254 | 3.0 | 4.0 | 0.00 | 0.05 | 0.00 | 77 | 1017.0 |
| 20260506224340 | 54 | 248 | 2.0 | 2.0 | 0.00 | 0.05 | 0.00 | 76 | 1017.0 |
| 20260506223841 | 54 | 248 | 2.0 | 3.0 | 0.00 | 0.05 | 0.00 | 76 | 1017.0 |
| 20260506222340 | 54 | 248 | 3.0 | 4.0 | 0.00 | 0.05 | 0.00 | 75 | 1017.0 |
| 20260506221839 | 54 | 248 | 3.0 | 5.0 | 0.00 | 0.05 | 0.00 | 74 | 1017.0 |
| 20260506221351 | 54 | 257 | 4.0 | 4.0 | 0.00 | 0.05 | 0.00 | 74 | 1017.0 |
| 20260506215838 | 55 | 250 | 3.0 | 5.0 | 0.00 | 0.05 | 0.05 | 74 | 1017.0 |
| 20260506215343 | 55 | 248 | 3.0 | 6.0 | 0.00 | 0.05 | 0.05 | 73 | 1017.0 |
| 20260506213842 | 55 | 250 | 3.0 | 4.0 | 0.00 | 0.05 | 0.05 | 73 | 1016.0 |
| 20260506213343 | 55 | 266 | 4.0 | 6.0 | 0.00 | 0.05 | 0.05 | 73 | 1016.0 |
| 20260506212840 | 55 | 273 | 4.0 | 4.0 | 0.00 | 0.05 | 0.05 | 73 | 1016.0 |
| 20260506210839 | 55 | 248 | 5.0 | 6.0 | 0.00 | 0.05 | 0.05 | 73 | 1016.0 |
| 20260506210339 | 55 | 248 | 6.0 | 6.0 | 0.00 | 0.05 | 0.05 | 73 | 1016.0 |
| 20260506205844 | 55 | 252 | 5.0 | 6.0 | 0.00 | 0.05 | 0.05 | 73 | 1016.0 |
| 20260506205342 | 55 | 258 | 4.0 | 4.0 | 0.00 | 0.05 | 0.05 | 73 | 1016.0 |
| 20260506204841 | 55 | 270 | 4.0 | 4.0 | 0.00 | 0.05 | 0.05 | 72 | 1016.0 |
| 20260506203343 | 55 | 266 | 4.0 | 5.0 | 0.00 | 0.05 | 0.05 | 72 | 1016.0 |
| 20260506202340 | 55 | 249 | 3.0 | 6.0 | 0.00 | 0.05 | 0.05 | 72 | 1015.0 |
| 20260506201843 | 55 | 254 | 5.0 | 8.0 | 0.00 | 0.05 | 0.05 | 71 | 1015.0 |
| 20260506201343 | 55 | 253 | 5.0 | 4.0 | 0.00 | 0.05 | 0.05 | 71 | 1015.0 |
| 20260506200943 | 55 | 232 | 5.0 | 6.0 | 0.00 | 0.05 | 0.05 | 71 | 1016.0 |
| 20260506200841 | 55 | 232 | 5.0 | 6.0 | 0.00 | 0.05 | 0.05 | 71 | 1016.0 |
| 20260506195843 | 55 | 248 | 4.0 | 4.0 | 0.00 | 0.05 | 0.05 | 70 | 1016.0 |
| 20260506195340 | 55 | 244 | 6.0 | 6.0 | 0.00 | 0.05 | 0.05 | 70 | 1016.0 |
| 20260506194840 | 55 | 259 | 5.0 | 8.0 | 0.00 | 0.05 | 0.05 | 69 | 1016.0 |
| 20260506193841 | 56 | 261 | 5.0 | 6.0 | 0.00 | 0.05 | 0.05 | 69 | 1016.0 |
| 20260506193343 | 56 | 300 | 6.0 | 9.0 | 0.00 | 0.05 | 0.05 | 69 | 1016.0 |
| 20260506192841 | 56 | 262 | 5.0 | 11.0 | 0.00 | 0.05 | 0.05 | 69 | 1016.0 |
| 20260506185839 | 56 | 313 | 4.0 | 5.0 | 0.00 | 0.05 | 0.05 | 68 | 1015.0 |
| 20260506184840 | 57 | 266 | 5.0 | 6.0 | 0.00 | 0.05 | 0.05 | 68 | 1015.0 |
| 20260506184344 | 57 | 257 | 6.0 | 8.0 | 0.00 | 0.05 | 0.05 | 68 | 1015.0 |
| 20260506183931 | 57 | 270 | 5.0 | 5.0 | 0.00 | 0.05 | 0.05 | 68 | 1015.0 |
| 20260506183840 | 57 | 270 | 5.0 | 5.0 | 0.00 | 0.05 | 0.05 | 68 | 1015.0 |
| 20260506183340 | 57 | 263 | 6.0 | 7.0 | 0.00 | 0.05 | 0.05 | 67 | 1015.0 |
| 20260506182917 | 57 | 248 | 5.0 | 9.0 | 0.00 | 0.05 | 0.05 | 67 | 1015.0 |
| 20260506182841 | 57 | 248 | 5.0 | 9.0 | 0.00 | 0.05 | 0.05 | 67 | 1015.0 |
| 20260506181840 | 57 | 268 | 7.0 | 10.0 | 0.00 | 0.05 | 0.05 | 67 | 1015.0 |
| 20260506180842 | 58 | 287 | 6.0 | 6.0 | 0.00 | 0.05 | 0.05 | 66 | 1015.0 |
| 20260506180339 | 58 | 292 | 8.0 | 11.0 | 0.00 | 0.05 | 0.05 | 66 | 1015.0 |
| 20260506175837 | 58 | 302 | 7.0 | 9.0 | 0.00 | 0.05 | 0.05 | 66 | 1015.0 |
| 20260506175337 | 59 | 277 | 5.0 | 6.0 | 0.00 | 0.05 | 0.05 | 65 | 1015.0 |
| 20260506174839 | 58 | 295 | 9.0 | 14.0 | 0.00 | 0.05 | 0.05 | 66 | 1015.0 |
| 20260506173838 | 59 | 322 | 10.0 | 11.0 | 0.00 | 0.05 | 0.05 | 65 | 1015.0 |
| 20260506173337 | 60 | 316 | 10.0 | 12.0 | 0.00 | 0.05 | 0.05 | 67 | 1015.0 |
| 20260506172912 | 60 | 338 | 7.0 | 9.0 | 0.00 | 0.05 | 0.05 | 68 | 1015.0 |
| 20260506172839 | 60 | 338 | 7.0 | 9.0 | 0.00 | 0.05 | 0.05 | 68 | 1015.0 |
| 20260506172338 | 60 | 304 | 7.0 | 10.0 | 0.00 | 0.05 | 0.05 | 68 | 1015.0 |
| 20260506171838 | 60 | 302 | 7.0 | 10.0 | 0.00 | 0.05 | 0.05 | 68 | 1015.0 |
| 20260506171338 | 60 | 320 | 9.0 | 13.0 | 0.00 | 0.05 | 0.05 | 69 | 1015.0 |
| 20260506170916 | 60 | 311 | 9.0 | 10.0 | 0.00 | 0.05 | 0.05 | 70 | 1014.0 |
| 20260506170837 | 60 | 311 | 9.0 | 10.0 | 0.00 | 0.05 | 0.05 | 70 | 1014.0 |
| 20260506170339 | 59 | 291 | 6.0 | 7.0 | 0.00 | 0.05 | 0.05 | 70 | 1014.0 |
| 20260506165838 | 59 | 299 | 9.0 | 12.0 | 0.00 | 0.05 | 0.05 | 71 | 1014.0 |
| 20260506165338 | 60 | 296 | 6.0 | 9.0 | 0.00 | 0.05 | 0.05 | 71 | 1014.0 |
| 20260506164838 | 60 | 282 | 6.0 | 6.0 | 0.00 | 0.05 | 0.05 | 71 | 1014.0 |
| 20260506164337 | 60 | 292 | 8.0 | 12.0 | 0.00 | 0.05 | 0.05 | 73 | 1014.0 |
| 20260506163908 | 59 | 329 | 9.0 | 10.0 | 0.00 | 0.05 | 0.05 | 73 | 1014.0 |
| 20260506163837 | 59 | 329 | 9.0 | 10.0 | 0.00 | 0.05 | 0.05 | 73 | 1014.0 |
| 20260506163337 | 59 | 323 | 6.0 | 7.0 | 0.00 | 0.05 | 0.05 | 73 | 1014.0 |
| 20260506162839 | 59 | 291 | 8.0 | 8.0 | 0.00 | 0.05 | 0.05 | 73 | 1014.0 |
| 20260506162338 | 59 | 303 | 8.0 | 10.0 | 0.00 | 0.05 | 0.05 | 73 | 1014.0 |
| 20260506161838 | 59 | 273 | 6.0 | 7.0 | 0.00 | 0.05 | 0.05 | 74 | 1014.0 |
| 20260506161337 | 59 | 297 | 9.0 | 13.0 | 0.00 | 0.05 | 0.05 | 74 | 1014.0 |
| 20260506160837 | 59 | 296 | 5.0 | 5.0 | 0.00 | 0.05 | 0.05 | 74 | 1014.0 |
| 20260506160340 | 59 | 304 | 6.0 | 6.0 | 0.00 | 0.05 | 0.05 | 73 | 1014.0 |
| 20260506155911 | 59 | 264 | 5.0 | 9.0 | 0.00 | 0.05 | 0.05 | 72 | 1014.0 |
| 20260506155840 | 59 | 264 | 5.0 | 9.0 | 0.00 | 0.05 | 0.05 | 72 | 1014.0 |
| 20260506155341 | 60 | 253 | 7.0 | 10.0 | 0.00 | 0.05 | 0.05 | 71 | 1014.0 |
| 20260506154837 | 61 | 274 | 6.0 | 12.0 | 0.00 | 0.05 | 0.05 | 71 | 1014.0 |
| 20260506154337 | 62 | 260 | 8.0 | 9.0 | 0.00 | 0.05 | 0.05 | 71 | 1014.0 |
| 20260506153838 | 62 | 288 | 6.0 | 9.0 | 0.00 | 0.05 | 0.05 | 71 | 1014.0 |
| 20260506153338 | 61 | 272 | 6.0 | 9.0 | 0.00 | 0.05 | 0.05 | 71 | 1014.0 |
| 20260506152909 | 61 | 270 | 8.0 | 5.0 | 0.00 | 0.05 | 0.05 | 71 | 1014.0 |
| 20260506152838 | 61 | 270 | 8.0 | 5.0 | 0.00 | 0.05 | 0.05 | 71 | 1014.0 |
| 20260506152338 | 61 | 230 | 9.0 | 10.0 | 0.00 | 0.05 | 0.05 | 72 | 1014.0 |
| 20260506151837 | 62 | 260 | 7.0 | 8.0 | 0.00 | 0.08 | 0.05 | 72 | 1014.0 |
| 20260506151338 | 62 | 243 | 5.0 | 9.0 | 0.00 | 0.08 | 0.05 | 73 | 1014.0 |
| 20260506150838 | 61 | 279 | 7.0 | 11.0 | 0.00 | 0.08 | 0.05 | 73 | 1014.0 |
| 20260506150338 | 61 | 283 | 6.0 | 9.0 | 0.00 | 0.08 | 0.05 | 73 | 1014.0 |
| 20260506145837 | 62 | 260 | 9.0 | 11.0 | 0.00 | 0.08 | 0.05 | 73 | 1014.0 |
| 20260506145337 | 61 | 296 | 8.0 | 9.0 | 0.00 | 0.08 | 0.05 | 73 | 1015.0 |
| 20260506144839 | 60 | 262 | 12.0 | 15.0 | 0.00 | 0.08 | 0.05 | 74 | 1015.0 |
| 20260506144343 | 58 | 0 | 0.0 | 0.0 | 0.00 | 0.08 | 0.05 | 82 | 1014.0 |